Starlink 33611

operational
NORAD ID: 63279 Int'l Des: 2025-053 Owner: SPXS Country: US Constellation: starlink
LEOCIRCULAR

About Starlink 33611

Description loading...

Live Position

Loading 3D Globe...

Upcoming Passes

Altitude History

Altitude vs Time

uPlot chart will show altitude changes over time

Two-Line Element Set

1 63279U 25053Q 25307.80849088 .00029618 00000-0 10823-2 0 9996
2 63279 43.0005 229.0398 0001486 244.8633 115.2064 15.27554343 37090
Epoch: Nov 3, 2025 • Age: 9 hours

Current Status

Altitude 482.7 km
Velocity 7.63 km/s
Sub-Earth Point 9.68°N, 120.38°E
Launch Date Mar 15, 2025
Age 0.6 years
Type internet

Technical Details

Classification Payload
Mass 575.00 kg
Dry Mass 530.00 kg
Total Mass 575.00 kg
Length 0.30 m
Diameter 4.10 m
Span 29.00 m
Shape Box + pan
Manufacturer SPXS
Bus Type Starlink V2MO
Phase Status In Orbit
Owner/State SPXS/US

Large Constellations

Loading constellations...